Year,Month,Day,Hour,Minute,Value (Times are PST for temperature in C)
2016,10,25,00,00,9.70
2016,10,25,00,01,9.70
2016,10,25,00,02,9.70
2016,10,25,00,03,9.70
2016,10,25,00,04,9.70
2016,10,25,00,05,9.70
2016,10,25,00,06,9.70
2016,10,25,00,07,9.70
2016,10,25,00,08,9.70
2016,10,25,00,09,9.70
2016,10,25,00,10,9.70
2016,10,25,00,11,9.70
2016,10,25,00,12,9.70
2016,10,25,00,13,9.70
2016,10,25,00,14,9.70
2016,10,25,00,15,9.70
2016,10,25,00,16,9.70
2016,10,25,00,17,9.70
2016,10,25,00,18,9.70
2016,10,25,00,19,9.70
2016,10,25,00,20,9.70
2016,10,25,00,21,9.70
2016,10,25,00,22,9.70
2016,10,25,00,23,9.70
2016,10,25,00,24,9.70
2016,10,25,00,25,9.70
2016,10,25,00,26,9.70
2016,10,25,00,27,9.70
2016,10,25,00,28,9.70
2016,10,25,00,29,9.70
2016,10,25,00,30,9.70
2016,10,25,00,31,9.70
2016,10,25,00,32,9.70
2016,10,25,00,33,9.70
2016,10,25,00,34,9.70
2016,10,25,00,35,9.70
2016,10,25,00,36,9.70
2016,10,25,00,37,9.70
2016,10,25,00,38,9.70
2016,10,25,00,39,9.70
2016,10,25,00,40,9.70
2016,10,25,00,41,9.70
2016,10,25,00,42,9.70
2016,10,25,00,43,9.70
2016,10,25,00,44,9.70
2016,10,25,00,45,9.70
2016,10,25,00,46,9.70
2016,10,25,00,47,9.70
2016,10,25,00,48,9.60
2016,10,25,00,49,9.60
2016,10,25,00,50,9.60
2016,10,25,00,51,9.60
2016,10,25,00,52,9.60
2016,10,25,00,53,9.60
2016,10,25,00,54,9.60
2016,10,25,00,55,9.60
2016,10,25,00,56,9.50
2016,10,25,00,57,9.50
2016,10,25,00,58,9.50
2016,10,25,00,59,9.50
2016,10,25,01,00,9.50
2016,10,25,01,01,9.50
2016,10,25,01,02,9.40
2016,10,25,01,03,9.40
2016,10,25,01,04,9.40
2016,10,25,01,05,9.40
2016,10,25,01,06,9.40
2016,10,25,01,07,9.40
2016,10,25,01,08,9.40
2016,10,25,01,09,9.40
2016,10,25,01,10,9.40
2016,10,25,01,11,9.40
2016,10,25,01,12,9.40
2016,10,25,01,13,9.40
2016,10,25,01,14,9.40
2016,10,25,01,15,9.40
2016,10,25,01,16,9.30
2016,10,25,01,17,9.30
2016,10,25,01,18,9.30
2016,10,25,01,19,9.30
2016,10,25,01,20,9.30
2016,10,25,01,21,9.30
2016,10,25,01,22,9.30
2016,10,25,01,23,9.30
2016,10,25,01,24,9.30
2016,10,25,01,25,9.30
2016,10,25,01,26,9.30
2016,10,25,01,27,9.30
2016,10,25,01,28,9.30
2016,10,25,01,29,9.30
2016,10,25,01,30,9.30
2016,10,25,01,31,9.30
2016,10,25,01,32,9.30
2016,10,25,01,33,9.30
2016,10,25,01,34,9.40
2016,10,25,01,35,9.40
2016,10,25,01,36,9.40
2016,10,25,01,37,9.40
2016,10,25,01,38,9.40
2016,10,25,01,39,9.40
2016,10,25,01,40,9.40
2016,10,25,01,41,9.40
2016,10,25,01,42,9.40
2016,10,25,01,43,9.40
2016,10,25,01,44,9.40
2016,10,25,01,45,9.40
2016,10,25,01,46,9.40
2016,10,25,01,47,9.40
2016,10,25,01,48,9.40
2016,10,25,01,49,9.40
2016,10,25,01,50,9.40
2016,10,25,01,51,9.40
2016,10,25,01,52,9.40
2016,10,25,01,53,9.40
2016,10,25,01,54,9.40
2016,10,25,01,55,9.40
2016,10,25,01,56,9.40
2016,10,25,01,57,9.40
2016,10,25,01,58,9.40
2016,10,25,01,59,9.40
2016,10,25,02,00,9.40
2016,10,25,02,01,9.40
2016,10,25,02,02,9.30
2016,10,25,02,03,9.30
2016,10,25,02,04,9.30
2016,10,25,02,05,9.30
2016,10,25,02,06,9.30
2016,10,25,02,07,9.30
2016,10,25,02,08,9.30
2016,10,25,02,09,9.30
2016,10,25,02,10,9.30
2016,10,25,02,11,9.30
2016,10,25,02,12,9.30
2016,10,25,02,13,9.30
2016,10,25,02,14,9.30
2016,10,25,02,15,9.30
2016,10,25,02,16,9.30
2016,10,25,02,17,9.30
2016,10,25,02,18,9.30
2016,10,25,02,19,9.30
2016,10,25,02,20,9.30
2016,10,25,02,21,9.30
2016,10,25,02,22,9.30
2016,10,25,02,23,9.30
2016,10,25,02,24,9.30
2016,10,25,02,25,9.30
2016,10,25,02,26,9.30
2016,10,25,02,27,9.30
2016,10,25,02,28,9.30
2016,10,25,02,29,9.30
2016,10,25,02,30,9.30
2016,10,25,02,31,9.30
2016,10,25,02,32,9.30
2016,10,25,02,33,9.30
2016,10,25,02,34,9.30
2016,10,25,02,35,9.30
2016,10,25,02,36,9.30
2016,10,25,02,37,9.30
2016,10,25,02,38,9.30
2016,10,25,02,39,9.30
2016,10,25,02,40,9.30
2016,10,25,02,41,9.30
2016,10,25,02,42,9.30
2016,10,25,02,43,9.30
2016,10,25,02,44,9.30
2016,10,25,02,45,9.30
2016,10,25,02,46,9.30
2016,10,25,02,47,9.30
2016,10,25,02,48,9.30
2016,10,25,02,49,9.30
2016,10,25,02,50,9.30
2016,10,25,02,51,9.30
2016,10,25,02,52,9.30
2016,10,25,02,53,9.30
2016,10,25,02,54,9.30
2016,10,25,02,55,9.30
2016,10,25,02,56,9.30
2016,10,25,02,57,9.30
2016,10,25,02,58,9.30
2016,10,25,02,59,9.30
2016,10,25,03,00,9.30
2016,10,25,03,01,9.30
2016,10,25,03,02,9.30
2016,10,25,03,03,9.30
2016,10,25,03,04,9.30
2016,10,25,03,05,9.30
2016,10,25,03,06,9.30
2016,10,25,03,07,9.30
2016,10,25,03,08,9.30
2016,10,25,03,09,9.30
2016,10,25,03,10,9.30
2016,10,25,03,11,9.30
2016,10,25,03,12,9.30
2016,10,25,03,13,9.30
2016,10,25,03,14,9.30
2016,10,25,03,15,9.30
2016,10,25,03,16,9.30
2016,10,25,03,17,9.30
2016,10,25,03,18,9.30
2016,10,25,03,19,9.30
2016,10,25,03,20,9.30
2016,10,25,03,21,9.30
2016,10,25,03,22,9.30
2016,10,25,03,23,9.30
2016,10,25,03,24,9.30
2016,10,25,03,25,9.30
2016,10,25,03,26,9.30
2016,10,25,03,27,9.30
2016,10,25,03,28,9.30
2016,10,25,03,29,9.30
2016,10,25,03,30,9.30
2016,10,25,03,31,9.30
2016,10,25,03,32,9.30
2016,10,25,03,33,9.30
2016,10,25,03,34,9.30
2016,10,25,03,35,9.30
2016,10,25,03,36,9.30
2016,10,25,03,37,9.30
2016,10,25,03,38,9.30
2016,10,25,03,39,9.30
2016,10,25,03,40,9.30
2016,10,25,03,41,9.30
2016,10,25,03,42,9.30
2016,10,25,03,43,9.30
2016,10,25,03,44,9.30
2016,10,25,03,45,9.30
2016,10,25,03,46,9.30
2016,10,25,03,47,9.30
2016,10,25,03,48,9.30
2016,10,25,03,49,9.30
2016,10,25,03,50,9.30
2016,10,25,03,51,9.30
2016,10,25,03,52,9.30
2016,10,25,03,53,9.30
2016,10,25,03,54,9.30
2016,10,25,03,55,9.30
2016,10,25,03,56,9.30
2016,10,25,03,57,9.30
2016,10,25,03,58,9.30
2016,10,25,03,59,9.30
2016,10,25,04,00,9.30
2016,10,25,04,01,9.30
2016,10,25,04,02,9.30
2016,10,25,04,03,9.30
2016,10,25,04,04,9.30
2016,10,25,04,05,9.30
2016,10,25,04,06,9.30
2016,10,25,04,07,9.30
2016,10,25,04,08,9.30
2016,10,25,04,09,9.30
2016,10,25,04,10,9.30
2016,10,25,04,11,9.30
2016,10,25,04,12,9.20
2016,10,25,04,13,9.20
2016,10,25,04,14,9.20
2016,10,25,04,15,9.20
2016,10,25,04,16,9.20
2016,10,25,04,17,9.20
2016,10,25,04,18,9.20
2016,10,25,04,19,9.20
2016,10,25,04,20,9.20
2016,10,25,04,21,9.20
2016,10,25,04,22,9.20
2016,10,25,04,23,9.20
2016,10,25,04,24,9.20
2016,10,25,04,25,9.20
2016,10,25,04,26,9.20
2016,10,25,04,27,9.20
2016,10,25,04,28,9.20
2016,10,25,04,29,9.20
2016,10,25,04,30,9.20
2016,10,25,04,31,9.20
2016,10,25,04,32,9.20
2016,10,25,04,33,9.20
2016,10,25,04,34,9.20
2016,10,25,04,35,9.10
2016,10,25,04,36,9.10
2016,10,25,04,37,9.10
2016,10,25,04,38,9.10
2016,10,25,04,39,9.10
2016,10,25,04,40,9.10
2016,10,25,04,41,9.10
2016,10,25,04,42,9.10
2016,10,25,04,43,9.10
2016,10,25,04,44,9.10
2016,10,25,04,45,9.00
2016,10,25,04,46,9.00
2016,10,25,04,47,9.00
2016,10,25,04,48,9.00
2016,10,25,04,49,9.00
2016,10,25,04,50,9.00
2016,10,25,04,51,9.00
2016,10,25,04,52,9.00
2016,10,25,04,53,8.90
2016,10,25,04,54,8.90
2016,10,25,04,55,8.90
2016,10,25,04,56,8.90
2016,10,25,04,57,8.90
2016,10,25,04,58,8.90
2016,10,25,04,59,8.90
2016,10,25,05,00,8.90
2016,10,25,05,01,8.90
2016,10,25,05,02,8.90
2016,10,25,05,03,8.90
2016,10,25,05,04,8.90
2016,10,25,05,05,8.90
2016,10,25,05,06,8.90
2016,10,25,05,07,8.90
2016,10,25,05,08,8.90
2016,10,25,05,09,8.90
2016,10,25,05,10,8.80
2016,10,25,05,11,8.80
2016,10,25,05,12,8.80
2016,10,25,05,13,8.80
2016,10,25,05,14,8.80
2016,10,25,05,15,8.80
2016,10,25,05,16,8.80
2016,10,25,05,17,8.80
2016,10,25,05,18,8.80
2016,10,25,05,19,8.80
2016,10,25,05,20,8.80
2016,10,25,05,21,8.80
2016,10,25,05,22,8.80
2016,10,25,05,23,8.80
2016,10,25,05,24,8.80
2016,10,25,05,25,8.80
2016,10,25,05,26,8.80
2016,10,25,05,27,8.80
2016,10,25,05,28,8.80
2016,10,25,05,29,8.80
2016,10,25,05,30,8.80
2016,10,25,05,31,8.80
2016,10,25,05,32,8.80
2016,10,25,05,33,8.80
2016,10,25,05,34,8.80
2016,10,25,05,35,8.80
2016,10,25,05,36,8.80
2016,10,25,05,37,8.70
2016,10,25,05,38,8.70
2016,10,25,05,39,8.70
2016,10,25,05,40,8.70
2016,10,25,05,41,8.70
2016,10,25,05,42,8.70
2016,10,25,05,43,8.70
2016,10,25,05,44,8.70
2016,10,25,05,45,8.70
2016,10,25,05,46,8.70
2016,10,25,05,47,8.70
2016,10,25,05,48,8.80
2016,10,25,05,49,8.80
2016,10,25,05,50,8.70
2016,10,25,05,51,8.70
2016,10,25,05,52,8.80
2016,10,25,05,53,8.80
2016,10,25,05,54,8.80
2016,10,25,05,55,8.80
2016,10,25,05,56,8.80
2016,10,25,05,57,8.80
2016,10,25,05,58,8.80
2016,10,25,05,59,8.80
2016,10,25,06,00,8.80
2016,10,25,06,01,8.80
2016,10,25,06,02,8.80
2016,10,25,06,03,8.80
2016,10,25,06,04,8.80
2016,10,25,06,05,8.80
2016,10,25,06,06,8.80
2016,10,25,06,07,8.80
2016,10,25,06,08,8.80
2016,10,25,06,09,8.80
2016,10,25,06,10,8.80
2016,10,25,06,11,8.80
2016,10,25,06,12,8.80
2016,10,25,06,13,8.80
2016,10,25,06,14,8.80
2016,10,25,06,15,8.80
2016,10,25,06,16,8.80
2016,10,25,06,17,8.80
2016,10,25,06,18,8.80
2016,10,25,06,19,8.80
2016,10,25,06,20,8.80
2016,10,25,06,21,8.80
2016,10,25,06,22,8.80
2016,10,25,06,23,8.80
2016,10,25,06,24,8.80
2016,10,25,06,25,8.80
2016,10,25,07,49,9.00
2016,10,25,07,50,9.00
2016,10,25,07,51,9.00
2016,10,25,07,52,9.00
2016,10,25,07,53,9.00
2016,10,25,07,54,9.00
2016,10,25,07,55,9.00
2016,10,25,07,56,9.00
2016,10,25,07,57,9.00
2016,10,25,07,58,9.00
2016,10,25,07,59,9.00
2016,10,25,08,00,9.00
2016,10,25,08,01,9.00
2016,10,25,08,02,9.00
2016,10,25,08,03,9.00
2016,10,25,08,04,9.00
2016,10,25,08,05,9.00
2016,10,25,08,06,9.00
2016,10,25,08,07,9.00
2016,10,25,08,08,9.00
2016,10,25,08,09,9.00
2016,10,25,08,10,9.00
2016,10,25,08,11,9.00
2016,10,25,08,12,9.00
2016,10,25,08,13,9.00
2016,10,25,08,14,9.00
2016,10,25,08,15,9.00
2016,10,25,08,16,9.00
2016,10,25,08,17,9.00
2016,10,25,08,18,9.00
2016,10,25,08,19,9.00
2016,10,25,08,20,9.00
2016,10,25,08,21,9.00
2016,10,25,08,22,9.00
2016,10,25,08,23,9.00
2016,10,25,08,24,9.00
2016,10,25,08,25,9.00
2016,10,25,08,26,9.00
2016,10,25,08,27,9.00
2016,10,25,08,28,9.00
2016,10,25,08,29,9.00
2016,10,25,08,30,9.00
2016,10,25,08,31,9.00
2016,10,25,08,32,9.00
2016,10,25,08,33,9.10
2016,10,25,08,34,9.00
2016,10,25,08,35,9.10
2016,10,25,08,36,9.10
2016,10,25,08,37,9.00
2016,10,25,08,38,9.00
2016,10,25,08,39,9.00
2016,10,25,08,40,9.00
2016,10,25,08,41,9.00
2016,10,25,08,42,9.00
2016,10,25,08,43,9.00
2016,10,25,08,44,9.10
2016,10,25,08,45,9.10
2016,10,25,08,46,9.10
2016,10,25,08,47,9.10
2016,10,25,08,48,9.10
2016,10,25,08,49,9.00
2016,10,25,08,50,9.10
2016,10,25,08,51,9.00
2016,10,25,08,52,9.00
2016,10,25,08,53,9.00
2016,10,25,08,54,9.00
2016,10,25,08,55,9.00
2016,10,25,08,56,9.00
2016,10,25,08,57,9.00
2016,10,25,08,58,9.00
2016,10,25,08,59,9.10
2016,10,25,09,00,9.00
2016,10,25,09,01,9.00
2016,10,25,09,02,9.00
2016,10,25,09,03,9.00
2016,10,25,09,04,9.10
2016,10,25,09,05,9.10
2016,10,25,09,06,9.10
2016,10,25,09,07,9.10
2016,10,25,09,08,9.10
2016,10,25,09,09,9.10
2016,10,25,09,10,9.10
2016,10,25,09,11,9.10
2016,10,25,09,12,9.10
2016,10,25,09,13,9.10
2016,10,25,09,14,9.10
2016,10,25,09,15,9.10
2016,10,25,09,16,9.10
2016,10,25,09,17,9.10
2016,10,25,09,18,9.10
2016,10,25,09,19,9.10
2016,10,25,09,20,9.10
2016,10,25,09,21,9.10
2016,10,25,09,22,9.10
2016,10,25,09,23,9.10
2016,10,25,09,24,9.10
2016,10,25,09,25,9.10
2016,10,25,09,26,9.10
2016,10,25,09,27,9.10
2016,10,25,09,28,9.10
2016,10,25,09,29,9.10
2016,10,25,09,30,9.10
2016,10,25,09,31,9.10
2016,10,25,09,32,9.10
2016,10,25,09,33,9.10
2016,10,25,09,34,9.10
2016,10,25,09,35,9.10
2016,10,25,09,36,9.10
2016,10,25,09,37,9.10
2016,10,25,09,38,9.10
2016,10,25,09,39,9.10
2016,10,25,09,40,9.10
2016,10,25,09,41,9.10
2016,10,25,09,42,9.10
2016,10,25,09,43,9.10
2016,10,25,09,44,9.10
2016,10,25,09,45,9.10
2016,10,25,09,46,9.10
2016,10,25,09,47,9.10
2016,10,25,09,48,9.10
2016,10,25,09,49,9.20
2016,10,25,09,50,9.10
2016,10,25,09,51,9.20
2016,10,25,09,52,9.20
2016,10,25,09,53,9.20
2016,10,25,09,54,9.20
2016,10,25,09,55,9.20
2016,10,25,09,56,9.20
2016,10,25,09,57,9.20
2016,10,25,09,58,9.20
2016,10,25,09,59,9.20
2016,10,25,10,00,9.20
2016,10,25,10,01,9.20
2016,10,25,10,02,9.20
2016,10,25,10,03,9.20
2016,10,25,10,04,9.20
2016,10,25,10,05,9.20
2016,10,25,10,06,9.20
2016,10,25,10,07,9.20
2016,10,25,10,08,9.20
2016,10,25,10,09,9.20
2016,10,25,10,10,9.20
2016,10,25,10,11,9.20
2016,10,25,10,12,9.20
2016,10,25,10,13,9.20
2016,10,25,10,14,9.20
2016,10,25,10,15,9.30
2016,10,25,10,16,9.30
2016,10,25,10,17,9.30
2016,10,25,10,18,9.30
2016,10,25,10,19,9.30
2016,10,25,10,20,9.30
2016,10,25,10,21,9.30
2016,10,25,10,22,9.30
2016,10,25,10,23,9.40
2016,10,25,10,24,9.30
2016,10,25,10,25,9.40
2016,10,25,10,26,9.40
2016,10,25,10,27,9.40
2016,10,25,10,28,9.40
2016,10,25,10,29,9.40
2016,10,25,10,30,9.40
2016,10,25,10,31,9.50
2016,10,25,10,32,9.50
2016,10,25,10,33,9.50
2016,10,25,10,34,9.50
2016,10,25,10,35,9.50
2016,10,25,10,36,9.50
2016,10,25,10,37,9.60
2016,10,25,10,38,9.60
2016,10,25,10,39,9.60
2016,10,25,10,40,9.60
2016,10,25,10,41,9.60
2016,10,25,10,42,9.60
2016,10,25,10,43,9.60
2016,10,25,10,44,9.70
2016,10,25,10,45,9.70
2016,10,25,10,46,9.70
2016,10,25,10,47,9.70
2016,10,25,10,48,9.70
2016,10,25,10,49,9.70
2016,10,25,10,50,9.80
2016,10,25,10,51,9.80
2016,10,25,10,52,9.80
2016,10,25,10,53,9.80
2016,10,25,10,54,9.80
2016,10,25,10,55,9.80
2016,10,25,10,56,9.80
2016,10,25,10,57,9.80
2016,10,25,10,58,9.80
2016,10,25,10,59,9.80
2016,10,25,11,00,9.80
2016,10,25,14,19,9.70
2016,10,25,14,20,9.70
2016,10,25,14,21,9.70
2016,10,25,14,22,9.70
2016,10,25,14,23,9.80
2016,10,25,14,24,9.70
2016,10,25,14,25,9.80
2016,10,25,14,26,9.80
2016,10,25,14,27,9.80
2016,10,25,14,28,9.80
2016,10,25,14,29,9.80
2016,10,25,14,30,9.80
2016,10,25,14,31,9.80
2016,10,25,14,32,9.80
2016,10,25,14,33,9.80
2016,10,25,14,34,9.80
2016,10,25,14,35,9.80
2016,10,25,14,36,9.80
2016,10,25,14,37,9.80
2016,10,25,14,38,9.80
2016,10,25,14,39,9.80
2016,10,25,14,40,9.80
2016,10,25,14,41,9.80
2016,10,25,14,42,9.80
2016,10,25,14,43,9.80
2016,10,25,14,44,9.80
2016,10,25,14,45,9.80
2016,10,25,14,46,9.80
2016,10,25,14,47,9.80
2016,10,25,14,48,9.80
2016,10,25,14,49,9.80
2016,10,25,14,50,9.80
2016,10,25,14,51,9.80
2016,10,25,14,52,9.80
2016,10,25,14,53,9.80
2016,10,25,14,54,9.80
2016,10,25,14,55,9.80
2016,10,25,14,56,9.80
2016,10,25,14,57,9.80
2016,10,25,14,58,9.80
2016,10,25,14,59,9.80
2016,10,25,15,00,9.80
2016,10,25,15,01,9.80
2016,10,25,15,02,9.80
2016,10,25,15,03,9.80
2016,10,25,15,04,9.80
2016,10,25,15,05,9.80
2016,10,25,15,06,9.80
2016,10,25,15,07,9.80
2016,10,25,15,08,9.80
2016,10,25,15,09,9.80
2016,10,25,15,10,9.80
2016,10,25,15,11,9.80
2016,10,25,15,12,9.80
2016,10,25,15,13,9.80
2016,10,25,15,14,9.80
2016,10,25,15,15,9.80
2016,10,25,15,16,9.80
2016,10,25,15,17,9.80
2016,10,25,15,18,9.80
2016,10,25,15,19,9.80
2016,10,25,15,20,9.80
2016,10,25,15,21,9.80
2016,10,25,15,22,9.80
2016,10,25,15,23,9.80
2016,10,25,15,24,9.80
2016,10,25,15,25,9.90
2016,10,25,15,26,9.90
2016,10,25,15,27,9.90
2016,10,25,15,28,9.90
2016,10,25,15,29,9.90
2016,10,25,15,30,9.90
2016,10,25,15,31,9.90
2016,10,25,15,32,9.90
2016,10,25,15,33,9.90
2016,10,25,15,34,9.90
2016,10,25,15,35,9.90
2016,10,25,15,36,9.90
2016,10,25,15,37,9.90
2016,10,25,15,38,9.90
2016,10,25,15,39,9.90
2016,10,25,15,40,9.90
2016,10,25,15,41,9.90
2016,10,25,15,42,9.90
2016,10,25,15,43,10.00
2016,10,25,15,44,10.00
2016,10,25,15,45,10.00
2016,10,25,15,46,10.00
2016,10,25,15,47,10.00
2016,10,25,15,48,10.00
2016,10,25,15,49,10.00
2016,10,25,15,50,10.00
2016,10,25,15,51,10.00
2016,10,25,15,52,10.00
2016,10,25,15,53,10.00
2016,10,25,15,54,10.00
2016,10,25,15,55,10.00
2016,10,25,15,56,10.00
2016,10,25,15,57,10.00
2016,10,25,15,58,10.00
2016,10,25,15,59,10.00
2016,10,25,16,00,10.00
2016,10,25,16,01,10.00
2016,10,25,16,02,10.00
2016,10,25,16,03,10.00
2016,10,25,16,04,10.10
2016,10,25,16,05,10.00
2016,10,25,16,06,10.10
2016,10,25,16,07,10.10
2016,10,25,16,08,10.10
2016,10,25,16,09,10.10
2016,10,25,16,10,10.10
2016,10,25,16,11,10.10
2016,10,25,16,12,10.10
2016,10,25,16,13,10.10
2016,10,25,16,14,10.10
2016,10,25,16,15,10.10
2016,10,25,16,16,10.10
2016,10,25,16,17,10.10
2016,10,25,16,18,10.10
2016,10,25,16,19,10.10
2016,10,25,16,20,10.10
2016,10,25,16,21,10.10
2016,10,25,16,22,10.10
2016,10,25,16,23,10.10
2016,10,25,16,24,10.10
2016,10,25,16,25,10.10
2016,10,25,16,26,10.10
2016,10,25,16,27,10.10
2016,10,25,16,28,10.10
2016,10,25,16,29,10.10
2016,10,25,16,30,10.10
2016,10,25,16,31,10.20
2016,10,25,16,32,10.20
2016,10,25,16,33,10.20
2016,10,25,16,34,10.20
2016,10,25,16,35,10.20
2016,10,25,16,36,10.20
2016,10,25,16,37,10.20
2016,10,25,16,38,10.20
2016,10,25,16,39,10.20
2016,10,25,16,40,10.20
2016,10,25,16,41,10.20
2016,10,25,16,42,10.20
2016,10,25,16,43,10.20
2016,10,25,16,44,10.20
2016,10,25,16,45,10.20
2016,10,25,16,46,10.20
2016,10,25,16,47,10.20
2016,10,25,16,48,10.20
2016,10,25,16,49,10.20
2016,10,25,16,50,10.20
2016,10,25,16,51,10.20
2016,10,25,16,52,10.20
2016,10,25,16,53,10.20
2016,10,25,16,54,10.20
2016,10,25,16,55,10.20
2016,10,25,16,56,10.20
2016,10,25,16,57,10.20
2016,10,25,16,58,10.20
2016,10,25,16,59,10.20
2016,10,25,17,00,10.20
2016,10,25,17,01,10.20
2016,10,25,17,02,10.20
2016,10,25,17,03,10.20
2016,10,25,17,04,10.20
2016,10,25,17,05,10.20
2016,10,25,17,06,10.20
2016,10,25,17,07,10.20
2016,10,25,17,08,10.20
2016,10,25,17,09,10.20
2016,10,25,17,10,10.20
2016,10,25,17,11,10.20
2016,10,25,17,12,10.20
2016,10,25,17,13,10.20
2016,10,25,17,14,10.20
2016,10,25,17,15,10.20
2016,10,25,17,16,10.20
2016,10,25,17,17,10.20
2016,10,25,17,18,10.20
2016,10,25,17,19,10.20
2016,10,25,17,20,10.20
2016,10,25,17,21,10.20
2016,10,25,17,22,10.20
2016,10,25,17,23,10.20
2016,10,25,17,24,10.20
2016,10,25,17,25,10.20
2016,10,25,17,26,10.20
2016,10,25,17,27,10.20
2016,10,25,17,28,10.20
2016,10,25,17,29,10.20
2016,10,25,17,30,10.20
2016,10,25,17,31,10.20
2016,10,25,17,32,10.20
2016,10,25,17,33,10.20
2016,10,25,17,34,10.20
2016,10,25,17,35,10.20
2016,10,25,17,36,10.20
2016,10,25,17,37,10.20
2016,10,25,17,38,10.20
2016,10,25,17,39,10.20
2016,10,25,17,40,10.20
2016,10,25,17,41,10.20
2016,10,25,17,42,10.20
2016,10,25,17,43,10.20
2016,10,25,17,44,10.20
2016,10,25,17,45,10.20
2016,10,25,17,46,10.20
2016,10,25,17,47,10.20
2016,10,25,17,48,10.20
2016,10,25,17,49,10.20
2016,10,25,17,50,10.20
2016,10,25,17,51,10.20
2016,10,25,17,52,10.20
2016,10,25,17,53,10.20
2016,10,25,17,54,10.20
2016,10,25,17,55,10.20
2016,10,25,17,56,10.20
2016,10,25,17,57,10.20
2016,10,25,17,58,10.20
2016,10,25,17,59,10.10
2016,10,25,18,00,10.10
2016,10,25,18,01,10.10
2016,10,25,18,02,10.10
2016,10,25,18,03,10.10
2016,10,25,18,04,10.10
2016,10,25,18,05,10.10
2016,10,25,18,06,10.10
2016,10,25,18,07,10.10
2016,10,25,18,08,10.10
2016,10,25,18,09,10.10
2016,10,25,18,10,10.10
2016,10,25,18,11,10.10
2016,10,25,18,12,10.10
2016,10,25,18,13,10.10
2016,10,25,18,14,10.10
2016,10,25,18,15,10.10
2016,10,25,18,16,10.10
2016,10,25,18,17,10.10
2016,10,25,18,18,10.10
2016,10,25,18,19,10.10
2016,10,25,18,20,10.10
2016,10,25,18,21,10.10
2016,10,25,18,22,10.10
2016,10,25,18,23,10.10
2016,10,25,18,24,10.10
2016,10,25,18,25,10.10
2016,10,25,18,26,10.10
2016,10,25,18,27,10.10
2016,10,25,18,28,10.10
2016,10,25,18,29,10.10
2016,10,25,18,30,10.10
2016,10,25,18,31,10.10
2016,10,25,18,32,10.10
2016,10,25,18,33,10.10
2016,10,25,18,34,10.10
2016,10,25,18,35,10.10
2016,10,25,18,36,10.10
2016,10,25,18,37,10.10
2016,10,25,18,38,10.00
2016,10,25,18,39,10.00
2016,10,25,18,40,10.00
2016,10,25,18,41,10.00
2016,10,25,18,42,10.00
2016,10,25,18,43,10.00
2016,10,25,18,44,10.00
2016,10,25,18,45,10.00
2016,10,25,18,46,10.00
2016,10,25,18,47,10.00
2016,10,25,18,48,10.00
2016,10,25,18,49,10.00
2016,10,25,18,50,10.00
2016,10,25,18,51,10.00
2016,10,25,18,52,10.00
2016,10,25,18,53,10.00
2016,10,25,18,54,9.90
2016,10,25,18,55,9.90
2016,10,25,18,56,9.90
2016,10,25,18,57,9.90
2016,10,25,18,58,9.90
2016,10,25,18,59,9.90
2016,10,25,19,00,9.90
2016,10,25,19,01,9.90
2016,10,25,19,02,9.90
2016,10,25,19,03,9.90
2016,10,25,19,04,9.90
2016,10,25,19,05,9.90
2016,10,25,19,06,9.90
2016,10,25,19,07,9.90
2016,10,25,19,08,9.90
2016,10,25,19,09,9.90
2016,10,25,19,10,9.90
2016,10,25,19,11,9.90
2016,10,25,19,12,9.90
2016,10,25,19,13,9.90
2016,10,25,19,14,9.90
2016,10,25,19,15,9.90
2016,10,25,19,16,9.80
2016,10,25,19,17,9.80
2016,10,25,19,18,9.80
2016,10,25,19,19,9.80
2016,10,25,19,20,9.80
2016,10,25,19,21,9.80
2016,10,25,19,22,9.80
2016,10,25,19,23,9.80
2016,10,25,19,24,9.80
2016,10,25,19,25,9.80
2016,10,25,19,26,9.80
2016,10,25,19,27,9.80
2016,10,25,19,28,9.80
2016,10,25,19,29,9.80
2016,10,25,19,30,9.80
2016,10,25,19,31,9.80
2016,10,25,19,32,9.80
2016,10,25,19,33,9.90
2016,10,25,19,34,9.90
2016,10,25,19,35,10.00
2016,10,25,19,36,10.00
2016,10,25,19,37,10.10
2016,10,25,19,38,10.10
2016,10,25,19,39,10.10
2016,10,25,19,40,10.10
2016,10,25,19,41,10.10
2016,10,25,19,42,10.10
2016,10,25,19,43,10.10
2016,10,25,19,44,10.10
2016,10,25,19,45,10.10
2016,10,25,19,46,10.10
2016,10,25,19,47,10.10
2016,10,25,19,48,10.10
2016,10,25,19,49,10.00
2016,10,25,19,50,10.00
2016,10,25,19,51,10.00
2016,10,25,19,52,10.00
2016,10,25,19,53,10.00
2016,10,25,19,54,9.90
2016,10,25,19,55,9.90
2016,10,25,19,56,9.90
2016,10,25,19,57,9.90
2016,10,25,19,58,9.90
2016,10,25,19,59,9.90
2016,10,25,20,00,9.90
2016,10,25,20,01,9.90
2016,10,25,20,02,9.90
2016,10,25,20,03,9.80
2016,10,25,20,04,9.80
2016,10,25,20,05,9.80
2016,10,25,20,06,9.80
2016,10,25,20,07,9.80
2016,10,25,20,08,9.70
2016,10,25,20,09,9.70
2016,10,25,20,10,9.70
2016,10,25,20,11,9.70
2016,10,25,20,12,9.70
2016,10,25,20,13,9.70
2016,10,25,20,14,9.70
2016,10,25,20,15,9.70
2016,10,25,20,16,9.70
2016,10,25,20,17,9.80
2016,10,25,20,18,9.80
2016,10,25,20,19,9.80
2016,10,25,20,20,9.90
2016,10,25,20,21,9.90
2016,10,25,20,22,9.90
2016,10,25,20,23,9.90
2016,10,25,20,24,9.90
2016,10,25,20,25,9.90
2016,10,25,20,26,9.90
2016,10,25,20,27,9.90
2016,10,25,20,28,9.90
2016,10,25,20,29,9.90
2016,10,25,20,30,9.90
2016,10,25,20,31,9.90
2016,10,25,20,32,9.80
2016,10,25,20,33,9.80
2016,10,25,20,34,9.80
2016,10,25,20,35,9.80
2016,10,25,20,36,9.80
2016,10,25,20,37,9.80
2016,10,25,20,38,9.80
2016,10,25,20,39,9.80
2016,10,25,20,40,9.70
2016,10,25,20,41,9.70
2016,10,25,20,42,9.70
2016,10,25,20,43,9.70
2016,10,25,20,44,9.70
2016,10,25,20,45,9.70
2016,10,25,20,46,9.70
2016,10,25,20,47,9.60
2016,10,25,20,48,9.60
2016,10,25,20,49,9.60
2016,10,25,20,50,9.60
2016,10,25,20,51,9.60
2016,10,25,20,52,9.60
2016,10,25,20,53,9.60
2016,10,25,20,54,9.60
2016,10,25,20,55,9.60
2016,10,25,20,56,9.60
2016,10,25,20,57,9.60
2016,10,25,20,58,9.50
2016,10,25,20,59,9.50
2016,10,25,21,00,9.50
2016,10,25,21,01,9.60
2016,10,25,21,02,9.60
2016,10,25,21,03,9.70
2016,10,25,21,04,9.80
2016,10,25,21,05,9.80
2016,10,25,21,06,9.90
2016,10,25,21,07,9.90
2016,10,25,21,08,9.90
2016,10,25,21,09,9.90
2016,10,25,21,10,9.90
2016,10,25,21,11,9.90
2016,10,25,21,12,9.90
2016,10,25,21,13,9.90
2016,10,25,21,14,9.90
2016,10,25,21,15,9.80
2016,10,25,21,16,9.80
2016,10,25,21,17,9.80
2016,10,25,21,18,9.80
2016,10,25,21,19,9.80
2016,10,25,21,20,9.90
2016,10,25,21,21,9.90
2016,10,25,21,22,9.90
2016,10,25,21,23,9.90
2016,10,25,21,24,9.90
2016,10,25,21,25,10.00
2016,10,25,21,26,10.00
2016,10,25,21,27,10.00
2016,10,25,21,28,10.00
2016,10,25,21,29,10.00
2016,10,25,21,30,10.00
2016,10,25,21,31,10.00
2016,10,25,21,32,10.00
2016,10,25,21,33,9.90
2016,10,25,21,34,9.90
2016,10,25,21,35,9.90
2016,10,25,21,36,9.90
2016,10,25,21,37,9.90
2016,10,25,21,38,9.90
2016,10,25,21,39,9.90
2016,10,25,21,40,9.90
2016,10,25,21,41,9.80
2016,10,25,21,42,9.80
2016,10,25,21,43,9.80
2016,10,25,21,44,9.80
2016,10,25,21,45,9.80
2016,10,25,21,46,9.80
2016,10,25,21,47,9.80
2016,10,25,21,48,9.80
2016,10,25,21,49,9.80
2016,10,25,21,50,9.80
2016,10,25,21,51,9.80
2016,10,25,21,52,9.80
2016,10,25,21,53,9.70
2016,10,25,21,54,9.70
2016,10,25,21,55,9.70
2016,10,25,21,56,9.70
2016,10,25,21,57,9.70
2016,10,25,21,58,9.70
2016,10,25,21,59,9.70
2016,10,25,22,00,9.70
2016,10,25,22,01,9.70
2016,10,25,22,02,9.70
2016,10,25,22,03,9.70
2016,10,25,22,04,9.70
2016,10,25,22,05,9.80
2016,10,25,22,06,9.80
2016,10,25,22,07,9.80
2016,10,25,22,08,9.90
2016,10,25,22,09,9.90
2016,10,25,22,10,9.90
2016,10,25,22,11,9.90
2016,10,25,22,12,9.90
2016,10,25,22,13,9.90
2016,10,25,22,14,9.90
2016,10,25,22,15,9.90
2016,10,25,22,16,10.00
2016,10,25,22,17,10.00
2016,10,25,22,18,10.00
2016,10,25,22,19,10.00
2016,10,25,22,20,10.00
2016,10,25,22,21,10.00
2016,10,25,22,22,10.00
2016,10,25,22,23,10.00
2016,10,25,22,24,9.90
2016,10,25,22,25,9.90
2016,10,25,22,26,9.80
2016,10,25,22,27,9.80
2016,10,25,22,28,9.80
2016,10,25,22,29,9.80
2016,10,25,22,30,9.70
2016,10,25,22,31,9.70
2016,10,25,22,32,9.70
2016,10,25,22,33,9.70
2016,10,25,22,34,9.60
2016,10,25,22,35,9.60
2016,10,25,22,36,9.60
2016,10,25,22,37,9.60